FREGAT DEB, 45843

Orbit data source: Space-Track

FREGAT DEB, 45843 is space debris in LEO originally from a launch on Mon, 18 Jul 2011 UTC launched from the Tyuratam Missile And Space Complex (TTMTR). Debris objects in space refer to the collection of defunct objects orbiting the Earth. Examples of debris include non-operational satellites, rocket bodies, and fragments generated from explosions, collisions, or faulty payload assembly.

Loading next visibility...
Identifier
45843, 2011-037CD
Orbit
LEO
Country
Flag of CISCIS
Related business
Manufacturer
Lavochkin
Mission
Spacecraft
Bus & Motor
Unknown
Mass
Unknown
Launch date (UTC)
2011-07-18 (15 years ago)
Launch vehicle
Unknown
Launch site
Tyuratam Missile And Space Complex (TTMTR)
Object type
Payload
Rocket body
Debris
Shape & HBR
Unknown shape, 0.1 m
Radar Cross Section
Small (<0.1 m²)

Expand to show TLE details & history
Last TLE update: 10 hours ago

TLE from 10 hours ago
0 FREGAT DEB
1 45843U 11037CD  26036.22799440 -.00001034  00000-0 -89353-2 0  9990
2 45843  51.1783 345.1673 1695162 187.4841 169.7251 10.23866198 31147
Epoch: 2026-02-05T05:28Z
TLE epoch observation values (Epoch: 2026-02-05T05:28:18.716Z)
Latitude
0.00005°
Longitude
127.70612°
Altitude
4,081.71 km
Speed
5.634 km/s
True Right ascension
23h 00m 40s
True Declination
0° 00' 00"
Sunlit
Object was in daylight at epoch
Visualization orbit readout
Latitude
Unknown
Longitude
Unknown
Altitude
Unknown
Speed
Unknown
Apparent Right ascension
Unknown
Apparent Declination
Unknown
Sunlit
N/A
Visualization observer readout
Local Sidereal Time
17:05:51
Azimuth
Unknown
Elevation
Unknown
Doppler factor
Unknown
Orbital elements
Apogee altitude
4,099.624 km
Perigee altitude
1,062.214 km
Semi-major axis
8,959.056 km
Eccentricity
0.16952
Inclination
51.1783°
RAAN
345.1673°
Arg. of periapsis
187.4841°
True anomaly
172.58814°
Mean anomaly
169.7251°
Eccentric anomaly
171.20941°
Mean motion
2.55947 °/min
Orbital period
140.65 mins
BSTAR
-0.0089353
Loading maneuver chart data...
Computing Atmospheric mass density...
Loading historical data...
Loading historical data...
Loading historical data...
Loading historical data...
Loading historical data...
Loading historical data...
Loading historical data...

Documentation

Showing up to 5 results
|